This demonstration page uses our WeatherBlox Daily Observations layout. Learn more.

Left ArrowRight Arrow

Hourly Observations for April 10, 2021

Temp ( °F °C ) Dew Point ( °F °C ) Humidity (%) Winds ( mph kmh ) Pressure ( in mb ) Visibility ( mi km ) Precip ( " mm )
12:59 am 00:59 Clear 61 16.1 58 14.4 90 90 SSW 10 17 30.02 1017 10 16 0.00 0.00
1:59 am 01:59 Cloudy 61 16.1 57 13.9 87 87 S 7 11 30.00 1016 10 16 0.00 0.00
2:59 am 02:59 Cloudy 60 15.6 56 13.3 86 86 WSW 5 7 30.00 1016 10 16 0.00 0.00
3:59 am 03:59 Cloudy 60 15.6 56 13.3 86 86 NE 5 7 29.98 1015 10 16 0.00 0.00
4:59 am 04:59 Mostly Cloudy with Mist and Fog 57 13.9 55 12.8 93 93 Calm 29.96 1015 3 5 0.00 0.00
5:32 am 05:32 Mostly Cloudy with Mist and Fog 55 12.8 53 11.7 93 93 Calm 29.98 1015 2 3 0.00 0.00
5:50 am 05:50 Partly Cloudy with Mist and Fog 56 13.3 54 12.2 93 93 NE 5 7 29.98 1015 6 10 0.00 0.00
5:59 am 05:59 Partly Cloudy 57 13.9 54 12.2 90 90 ENE 3 6 29.98 1015 7 11 0.00 0.00
6:59 am 06:59 Partly Cloudy with Mist and Fog 56 13.3 53 11.7 90 90 E 5 7 29.99 1016 6 10 0.00 0.00
7:59 am 07:59 Partly Cloudy 58 14.4 55 12.8 90 90 ESE 8 13 30.01 1016 8 13 0.00 0.00
8:32 am 08:32 Partly Cloudy 60 15.6 56 13.3 86 86 ESE 5 7 30.01 1016 8 13 0.00 0.00
8:51 am 08:51 Mostly Cloudy 60 15.6 56 13.3 86 86 ESE 5 7 30.02 1017 7 11 0.00 0.00
8:59 am 08:59 Mostly Cloudy with Mist and Fog 59 15 56 13.3 90 90 SE 6 9 30.01 1016 6 10 0.00 0.00
9:16 am 09:16 Cloudy with Mist and Fog 60 15.6 57 13.9 90 90 SE 7 11 30.01 1016 6 10 0.00 0.00
9:59 am 09:59 Mostly Cloudy 61 16.1 58 14.4 90 90 ESE 3 6 30.00 1016 7 11 0.00 0.00
10:19 am 10:19 Mostly Cloudy 63 17.2 58 14.4 84 84 VRB 3 6 30.02 1017 8 13 0.00 0.00
10:59 am 10:59 Partly Cloudy 65 18.3 57 13.9 76 76 NNW 7 11 30.01 1016 10 16 0.00 0.00
11:59 am 11:59 Partly Cloudy 68 20 59 15 73 73 NW 5 7 29.98 1015 9 14 0.00 0.00
12:59 pm 12:59 Partly Cloudy 70 21.1 58 14.4 66 66 NNW 6 9 29.95 1014 10 16 0.00 0.00
1:59 pm 13:59 Partly Cloudy 72 22.2 58 14.4 61 61 N 6 9 29.93 1013 10 16 0.00 0.00
2:59 pm 14:59 Mostly Cloudy 73 22.8 58 14.4 59 59 N 6 9 29.90 1013 10 16 0.00 0.00
3:59 pm 15:59 Mostly Cloudy 73 22.8 58 14.4 59 59 ENE 9 15 29.87 1011 9 14 0.00 0.00
4:59 pm 16:59 Mostly Cloudy 72 22.2 57 13.9 59 59 E 9 15 29.84 1011 9 14 0.00 0.00
5:59 pm 17:59 Mostly Cloudy 71 21.7 57 13.9 61 61 E 8 13 29.82 1010 9 14 0.00 0.00
6:59 pm 18:59 Mostly Cloudy 70 21.1 56 13.3 61 61 ESE 9 15 29.81 1010 10 16 0.00 0.00
7:59 pm 19:59 Cloudy 66 18.9 56 13.3 70 70 SE 9 15 29.80 1009 10 16 0.00 0.00
8:59 pm 20:59 Cloudy 64 17.8 57 13.9 78 78 SE 10 17 29.80 1009 10 16 0.00 0.00
9:59 pm 21:59 Mostly Cloudy 64 17.8 58 14.4 81 81 SSE 9 15 29.79 1009 10 16 0.00 0.00
10:59 pm 22:59 Cloudy 64 17.8 59 15 84 84 SSE 6 9 29.75 1008 10 16 0.00 0.00
11:59 pm 23:59 Cloudy 65 18.3 60 15.6 84 84 SSE 5 7 29.73 1007 10 16 0.00 0.00

Powered by AerisWeather